Location: Launois
(49.6535°N, 4.5395°E)
Time: 09:45:04
(UTC+00:00)

CZ-2D R/B - Pass Details

Date: 19 August 2024
Orbit: 791 x 842 km, 98.8° (Epoch: 16 September)

Event Time Altitude Azimuth Distance (km) Brightness Sun altitude
Rises 03:18:23 0° 6° (N) 3,346 6.0 -12.2°
Reaches altitude 10° 03:21:05 10° 354° (N) 2,418 5.0 -11.9°
Maximum altitude 03:25:19 25° 301° (WNW) 1,623 3.5 -11.3°
Enters shadow 03:28:57 13° 253° (WSW) 2,242 3.8 -10.8°
